Stations météo

réclame
Mon MeteoGroup
Kiruna Airport, Suède (2044): Température de l'air & dewpoint: 14.06.2019 00:00:00 - 20.06.2019 00:00:00 (CEST)Kiruna Airport, Suède (2044): Vitesse du vent: 14.06.2019 00:00:00 - 20.06.2019 00:00:00 (CEST)Kiruna Airport, Suède (2044): Direction du vent: 14.06.2019 00:00:00 - 20.06.2019 00:00:00 (CEST)Kiruna Airport, Suède (2044): reduced air pressure: 14.06.2019 00:00:00 - 20.06.2019 00:00:00 (CEST)Kiruna Airport, Suède (2044): visibility: 14.06.2019 00:00:00 - 20.06.2019 00:00:00 (CEST)
Date & Time tt [°C] td [°C] ff [km/h] ff [knt] dd ppp [hPa] vv [km]
20.06.2019 00:00:00 9,2 5,4 4 2 - 1012,3 10
19.06.2019 23:00:00 10,0 5,0 13 7 N 1011,9 10
19.06.2019 22:00:00 10,6 4,9 16 9 N 1011,3 10
19.06.2019 21:00:00 11,5 4,9 13 7 N 1010,5 10
19.06.2019 20:00:00 12,2 4,9 15 8 N 1010,0 10
19.06.2019 19:00:00 13,2 5,1 18 10 N 1009,3 10
19.06.2019 18:00:00 13,6 5,0 18 10 N 1008,9 10
19.06.2019 17:00:00 13,4 6,0 16 9 N 1008,7 10
19.06.2019 16:00:00 14,5 6,1 11 6 N 1008,2 10
19.06.2019 15:00:00 14,5 5,6 8 4 N 1007,8 10
19.06.2019 14:00:00 13,1 7,3 8 4 NNW 1007,9 10
19.06.2019 13:00:00 13,6 6,7 15 8 N 1007,4 10
19.06.2019 12:00:00 13,0 7,0 9 5 N 1007,3 10
19.06.2019 11:00:00 12,3 6,6 11 6 N 1007,2 10
19.06.2019 10:00:00 13,1 5,3 5 3 NW 1006,8 10
19.06.2019 09:00:00 12,0 4,9 5 3 - 1007,0 10
19.06.2019 08:00:00 11,5 4,5 5 3 - 1006,9 10
19.06.2019 07:00:00 10,7 4,8 8 4 WNW 1006,9 10
19.06.2019 06:00:00 9,3 4,7 5 3 NNW 1007,4 10
19.06.2019 05:00:00 9,0 5,0 8 4 N 1007,6 10
19.06.2019 04:00:00 8,2 5,0 8 4 NW 1007,7 10
19.06.2019 03:00:00 7,5 4,6 9 5 WNW 1007,6 10
19.06.2019 02:00:00 7,6 5,1 5 3 NNW 1007,6 10
19.06.2019 01:00:00 7,8 5,3 11 6 N 1007,6 10
19.06.2019 00:00:00 7,8 5,1 13 7 NNW 1007,6 10
18.06.2019 23:00:00 8,4 5,5 13 7 NNW 1007,4 10
18.06.2019 22:00:00 8,6 6,6 8 4 N 1007,5 10
18.06.2019 21:00:00 9,1 7,4 15 8 N 1007,1 10
18.06.2019 20:00:00 9,4 8,0 9 5 N 1006,8 10
18.06.2019 19:00:00 8,7 7,8 8 4 N 1007,1 10
18.06.2019 18:00:00 8,9 7,8 8 4 NNW 1007,1 10
18.06.2019 17:00:00 9,4 8,3 8 4 N 1006,9 10
18.06.2019 16:00:00 9,0 8,1 8 4 N 1007,5 6
18.06.2019 15:00:00 9,4 7,5 5 3 N 1007,7 10
18.06.2019 14:00:00 9,8 7,6 8 4 NE 1007,8 10
18.06.2019 13:00:00 9,4 6,8 8 4 NE 1008,2 10
18.06.2019 12:00:00 9,6 6,9 9 5 E 1008,3 10
18.06.2019 11:00:00 9,8 5,2 5 3 NE 1008,6 10
18.06.2019 10:00:00 9,4 5,9 8 4 N 1008,6 10
18.06.2019 09:00:00 9,4 5,9 9 5 NE 1008,5 10
18.06.2019 08:00:00 10,0 3,7 9 5 NNE 1008,6 10
18.06.2019 07:00:00 9,6 4,8 8 4 N 1008,7 10
18.06.2019 06:00:00 9,3 4,9 9 5 N 1009,0 10
18.06.2019 05:00:00 9,3 4,5 11 6 N 1008,8 10
18.06.2019 04:00:00 9,4 4,4 11 6 N 1008,9 10
18.06.2019 03:00:00 9,6 4,0 15 8 N 1008,9 10
18.06.2019 02:00:00 9,7 5,1 16 9 N 1008,6 10
18.06.2019 01:00:00 9,5 5,5 16 9 N 1008,7 10
18.06.2019 00:00:00 10,2 6,0 16 9 N 1008,4 10
17.06.2019 23:00:00 11,5 6,0 18 10 N 1008,0 10
17.06.2019 22:00:00 13,7 6,1 13 7 N 1007,2 10
17.06.2019 21:00:00 14,8 6,1 15 8 N 1006,7 10
17.06.2019 20:00:00 16,6 5,2 21 11 N 1006,1 10
17.06.2019 19:00:00 17,6 4,9 21 11 N 1005,9 10
17.06.2019 18:00:00 18,1 5,0 15 8 NNW 1005,9 10
17.06.2019 17:00:00 18,7 4,5 13 7 NNW 1005,9 10
17.06.2019 16:00:00 19,5 4,4 13 7 N 1005,8 10
17.06.2019 15:00:00 19,1 4,4 15 8 N 1005,8 10
17.06.2019 14:00:00 18,7 3,7 11 6 N 1006,1 10
17.06.2019 13:00:00 18,0 2,7 13 7 NNE 1006,4 10
17.06.2019 12:00:00 17,6 2,3 9 5 NE 1006,4 10
17.06.2019 11:00:00 16,4 2,4 4 2 ENE 1007,0 10
17.06.2019 10:00:00 14,8 2,0 4 2 NE 1007,6 10
17.06.2019 09:00:00 13,6 2,2 5 3 ENE 1008,1 10
17.06.2019 08:00:00 12,3 1,9 4 2 ENE 1008,8 50
17.06.2019 07:00:00 12,0 1,6 9 5 ENE 1009,2 10
17.06.2019 06:00:00 10,9 2,2 8 4 NE 1009,7 10
17.06.2019 05:00:00 10,2 3,0 9 5 NNE 1010,0 10
17.06.2019 04:00:00 9,6 3,1 5 3 N 1010,6 10
17.06.2019 03:00:00 8,8 2,1 9 5 N 1010,9 10
17.06.2019 02:00:00 9,0 2,1 8 4 N 1010,8 10
17.06.2019 01:00:00 9,8 2,2 11 6 NNE 1010,8 10
17.06.2019 00:00:00 11,7 2,4 13 7 NE 1010,4 10
16.06.2019 23:00:00 13,8 3,0 18 10 NE 1010,1 10
16.06.2019 22:00:00 15,9 3,0 21 11 ENE 1009,5 10
16.06.2019 21:00:00 18,3 2,6 22 12 ENE 1008,5 10
16.06.2019 20:00:00 21,0 0,2 9 5 E 1008,0 10
16.06.2019 19:00:00 21,1 0,3 11 6 ENE 1008,1 10
16.06.2019 18:00:00 21,6 0,2 8 4 NE 1008,4 10
16.06.2019 17:00:00 20,8 0,0 8 4 ENE 1009,0 10
16.06.2019 16:00:00 20,7 0,0 5 3 N 1009,4 10
16.06.2019 15:00:00 20,6 -0,7 5 3 - 1009,7 10
16.06.2019 14:00:00 19,8 0,8 8 4 NE 1010,3 10
16.06.2019 13:00:00 18,9 0,0 5 3 - 1010,7 10
16.06.2019 12:00:00 18,3 0,9 9 5 ENE 1011,1 10
16.06.2019 11:00:00 17,3 -0,4 11 6 NE 1011,8 10
16.06.2019 10:00:00 16,2 0,3 11 6 NNE 1012,1 10
16.06.2019 09:00:00 15,6 3,4 15 8 NNE 1012,5 10
16.06.2019 08:00:00 14,7 4,1 11 6 N 1013,0 10
16.06.2019 07:00:00 13,4 4,3 8 4 N 1013,3 10
16.06.2019 06:00:00 12,7 4,4 8 4 NE 1013,4 10
16.06.2019 05:00:00 11,4 4,4 0 0 N 1013,7 10
16.06.2019 04:00:00 9,6 4,8 5 3 SSW 1014,6 10
16.06.2019 03:00:00 9,5 5,3 4 2 WSW 1014,6 10
16.06.2019 02:00:00 9,3 4,7 8 4 N 1014,6 10
16.06.2019 01:00:00 10,9 5,0 15 8 N 1014,4 10
16.06.2019 00:00:00 11,7 4,9 15 8 N 1014,4 10
15.06.2019 23:00:00 13,6 5,0 13 7 N 1014,0 10
15.06.2019 22:00:00 15,1 5,0 18 10 NNW 1013,7 10
15.06.2019 21:00:00 16,5 4,2 16 9 N 1013,2 10
15.06.2019 20:00:00 17,8 3,3 22 12 N 1013,0 10
15.06.2019 19:00:00 19,2 1,7 16 9 N 1013,0 10
15.06.2019 18:00:00 21,2 -0,2 15 8 N 1012,6 10
15.06.2019 17:00:00 21,2 0,9 9 5 N 1012,8 10
15.06.2019 16:00:00 21,3 1,0 9 5 N 1013,2 10
15.06.2019 15:00:00 20,7 0,0 11 6 E 1013,7 10
15.06.2019 14:00:00 20,3 0,2 2 1 N 1014,1 10
15.06.2019 13:00:00 19,0 1,0 5 3 ESE 1014,5 10
15.06.2019 12:00:00 17,9 1,0 4 2 E 1015,1 10
15.06.2019 11:00:00 16,3 -0,4 4 2 NNE 1015,8 10
15.06.2019 10:00:00 15,5 1,2 0 0 N 1016,3 10
15.06.2019 09:00:00 14,0 0,9 2 1 SSW 1016,7 10
15.06.2019 08:00:00 12,0 0,1 2 1 WNW 1017,3 10
15.06.2019 07:00:00 10,7 0,1 0 0 N 1017,9 10
15.06.2019 06:00:00 9,2 -0,4 4 2 E 1018,6 10
15.06.2019 05:00:00 8,3 -0,7 8 4 NNE 1019,0 10
15.06.2019 04:00:00 7,8 -1,2 2 1 - 1019,2 10
15.06.2019 03:00:00 7,2 -0,5 5 3 N 1019,1 10
15.06.2019 02:00:00 7,8 -0,9 4 2 NNE 1019,0 10
15.06.2019 01:00:00 8,7 -1,1 11 6 NE 1018,3 10
15.06.2019 00:00:00 10,6 -1,5 11 6 ENE 1017,6 10
14.06.2019 23:00:00 13,0 -1,7 22 12 NE 1016,8 10
14.06.2019 22:00:00 15,8 1,1 15 8 NNE 1015,5 10
14.06.2019 21:00:00 17,6 2,0 16 9 N 1014,7 10
14.06.2019 20:00:00 18,7 2,9 21 11 N 1014,2 10
14.06.2019 19:00:00 19,9 0,8 18 10 N 1013,9 10
14.06.2019 18:00:00 20,5 -0,8 13 7 N 1013,9 10
14.06.2019 17:00:00 20,6 -0,1 15 8 NNE 1014,2 10
14.06.2019 16:00:00 20,7 1,0 5 3 ENE 1014,4 10
14.06.2019 15:00:00 20,1 1,0 2 1 N 1015,1 10
14.06.2019 14:00:00 19,1 0,2 4 2 NE 1016,0 10
14.06.2019 13:00:00 18,4 1,4 9 5 SW 1016,7 10
14.06.2019 12:00:00 17,8 1,7 9 5 SW 1017,5 10
14.06.2019 11:00:00 17,1 1,9 9 5 WSW 1017,8 10
14.06.2019 10:00:00 16,2 3,3 8 4 - 1018,2 10
14.06.2019 09:00:00 14,8 1,7 11 6 SW 1018,9 10
14.06.2019 08:00:00 14,0 2,2 8 4 W 1019,6 10
14.06.2019 07:00:00 13,4 3,5 5 3 SW 1019,9 10
14.06.2019 06:00:00 11,7 3,7 9 5 SW 1020,7 10
14.06.2019 05:00:00 10,5 3,5 9 5 SW 1021,3 10
14.06.2019 04:00:00 8,6 3,2 8 4 SSW 1022,2 10
14.06.2019 03:00:00 7,0 3,1 11 6 SW 1022,6 10
14.06.2019 02:00:00 6,8 2,7 5 3 SW 1023,1 10
14.06.2019 01:00:00 7,5 2,6 8 4 SW 1023,3 10
14.06.2019 00:00:00 9,1 2,4 5 3 SSW 1022,9 10

tt = Température de l'air
td = dewpoint
ff = Vitesse du vent
dd = Direction du vent
ppp = reduced air pressure
vv = visibility

stations d'obs. à proximité